Simultaneous Nadir Overpasses (SNOs) Predictions

Prediction of SNOs between GOES-16 and TERRA Satellite Orbit:

Table of predicted SNOs for the next 14.0 days since TLE Epoch: 4/13/2024
Index Date Time (GOES-16) GOES-16 Lat,Lon TERRA Lat,Lon Distance(km) Time Diff (sec)
1 04/13/2024 14:38:28 0.02, -75.21 -0.75, -71.68 402.21 80
2 04/14/2024 02:58:36 -0.02, -75.21 -0.28, -76.58 154.82 80
3 04/16/2024 02:38:49 -0.02, -75.22 0.54, -72.44 314.79 80
4 04/16/2024 14:58:48 0.01, -75.23 0.46, -77.31 236.69 80
5 04/18/2024 14:44:23 0.01, -75.25 -0.45, -73.19 234.31 80
6 04/19/2024 03:04:30 -0.01, -75.25 -0.58, -78.09 322.04 80
7 04/21/2024 02:44:43 -0.01, -75.27 0.29, -73.96 150.11 80
8 04/21/2024 15:04:42 0.01, -75.29 0.75, -78.82 400.79 80
9 04/23/2024 14:50:15 0.01, -75.32 -0.15, -74.69 72.23 80
10 04/24/2024 03:10:23 -0.01, -75.33 -0.88, -79.59 483.66 80
11 04/26/2024 02:53:15 -0.00, -75.36 -0.02, -75.45 10.47 80
